Wind_Speed
26 28 33 28 29 26 33 40 44 43 38 31 33 35 36 36 36 35 32 30 29 30 26 24 24 24 24 24 25 25 25 25 25 26 25 24 23 20 18 17 16 13 13
26 30 32 37 27 28 35 39 41 44 41 36 32 31 29 30 35 35 33 31 31 28 26 26 24 21 23 24 25 26 27 27 27 26 26 24 23 23 19 18 16 14 13
24 24 32 32 32 27 33 44 43 48 46 36 33 31 30 33 30 34 34 33 30 30 29 30 24 24 22 24 24 25 27 28 28 26 28 24 21 22 22 18 18 16 16
21 26 16 17 26 28 23 45 42 57 43 38 32 37 31 30 33 34 32 31 30 30 31 32 32 28 27 27 26 30 36 30 30 30 28 27 23 19 18 20 20 18 21
20 19 21 6 8 6 20 33 33 29 32 55 39 35 33 36 30 35 40 37 35 32 39 39 39 40 36 29 31 25 26 32 34 35 32 30 36 35 23 35 30 27 23
17 7 7 7 12 10 10 13 8 4 3 17 34 55 45 37 41 33 33 38 36 43 42 45 45 47 39 27 24 18 21 15 25 34 22 30 36 34 27 36 33 32 35
15 12 9 4 2 2 8 6 5 11 13 14 17 9 16 18 47 48 47 54 53 52 41 39 34 24 28 30 27 25 25 22 20 17 23 28 28 29 36 34 40 40 44
14 13 12 9 6 4 6 10 13 14 16 18 23 22 22 23 26 27 23 21 20 21 32 39 39 29 24 25 23 22 20 21 17 23 22 23 26 34 34 27 26 31 31
14 10 7 7 9 8 9 11 11 13 14 14 16 18 19 19 18 21 21 20 22 25 26 27 26 26 27 27 25 22 20 21 21 24 27 30 31 34 34 32 32 33 34
7 12 13 11 12 14 17 19 20 20 20 21 23 25 26 27 28 27 26 25 24 24 25 25 25 26 27 25 23 23 21 23 26 29 29 31 31 31 33 35 35 35 35
16 14 14 14 14 15 15 17 19 19 21 23 25 27 28 29 31 32 31 32 32 31 31 29 29 28 28 27 26 25 24 26 29 29 29 29 28 30 31 32 32 32 32
9 8 8 9 10 11 12 13 14 18 21 23 23 23 24 27 29 32 32 33 33 31 29 29 28 29 29 27 26 25 23 23 23 20 19 21 22 25 26 24 25 24 27
6 4 4 5 6 7 8 11 13 15 17 19 20 22 23 24 26 27 29 30 30 29 31 31 32 30 28 27 25 23 21 18 15 14 16 17 18 21 23 24 25 25 27
3 5 9 10 12 14 15 15 15 16 17 17 19 22 25 26 26 26 27 29 29 30 32 32 31 28 28 28 25 23 22 20 20 20 20 20 22 23 24 25 25 26 27
11 15 17 18 21 23 24 25 27 27 26 26 26 26 26 26 27 29 30 31 31 29 29 29 29 29 30 30 27 27 26 24 26 25 23 22 22 23 24 25 25 25 26
12 15 18 22 24 27 28 29 31 32 34 35 36 37 37 36 34 32 31 29 29 30 31 31 31 32 32 30 31 30 30 28 27 24 23 22 23 22 22 23 25 25 26
13 16 19 21 23 24 26 28 30 32 35 37 38 39 41 42 43 41 40 38 36 33 32 33 34 34 34 34 33 32 30 28 27 25 24 23 22 22 23 24 25 26 27
27 28 29 29 29 30 31 33 34 35 36 36 38 40 42 44 45 45 47 47 45 42 40 39 37 38 38 37 35 33 32 30 28 26 24 23 23 24 24 25 26 26 25
31 32 32 33 33 34 34 35 34 37 40 42 43 43 44 46 47 48 48 47 46 46 46 44 43 43 42 41 39 36 34 32 30 27 24 23 24 25 26 25 27 27 26
37 40 41 40 41 40 39 39 37 36 40 48 48 50 49 51 50 48 48 46 45 45 46 46 45 44 44 44 43 39 37 34 30 27 25 24 25 25 25 26 26 26 25
38 38 38 39 41 43 43 42 39 36 36 36 38 48 51 54 48 46 47 46 45 44 44 46 45 45 46 44 42 40 37 34 30 27 26 27 25 26 27 26 25 24 23
41 42 43 42 40 40 42 43 43 42 42 41 42 42 40 43 53 48 45 45 45 46 42 44 45 44 45 44 41 39 36 33 30 28 27 26 26 26 27 26 24 23 22
45 44 43 42 41 42 43 44 44 42 47 46 47 49 44 40 42 51 46 45 43 47 47 43 44 43 43 43 40 38 36 33 31 28 27 26 27 27 27 26 24 22 20
41 40 40 40 39 40 42 43 43 45 47 46 43 42 42 37 39 44 47 44 43 45 46 46 42 41 42 42 39 40 35 33 30 29 28 27 27 26 27 25 23 21 20
39 37 36 38 38 39 40 39 39 40 40 36 32 28 29 34 38 42 42 42 41 42 42 40 38 37 39 38 41 36 34 34 33 32 28 28 27 25 25 24 24 22 21
37 35 33 35 37 38 40 39 35 34 32 29 27 26 32 32 34 41 31 37 39 39 39 38 38 36 39 43 38 37 38 37 35 30 28 29 27 25 25 25 24 24 23
Wind_Direction
236 221 213 222 227 223 204 210 188 182 185 189 193 198 202 204 205 208 213 218 224 229 233 239 243 251 257 259 263 265 267 268 266 266 268 268 271 270 273 273 278 289 294
238 222 211 218 231 221 209 200 192 183 185 187 185 191 195 206 211 214 218 220 225 227 231 238 239 249 261 266 269 269 267 264 264 264 261 256 264 261 265 270 273 277 289
234 229 242 233 229 205 221 207 204 197 183 189 192 189 195 206 210 215 220 224 223 230 233 239 246 252 263 269 269 271 268 260 257 256 253 254 257 264 264 261 269 270 282
225 221 215 206 228 243 226 211 199 202 196 197 203 202 210 216 217 220 221 225 229 231 239 242 244 244 263 256 265 274 262 258 250 243 243 245 246 261 273 269 264 277 283
200 229 230 240 155 143 188 204 196 210 221 207 209 218 227 230 229 228 233 233 232 240 240 250 258 250 261 264 256 269 280 254 244 238 241 244 259 263 266 267 271 272 285
206 194 192 67 31 53 83 147 109 186 182 204 218 219 234 230 232 240 247 242 243 247 244 254 265 264 265 265 291 279 297 319 250 241 274 279 275 284 279 263 265 276 283
173 171 135 125 116 144 200 190 214 220 231 237 242 210 223 239 236 251 252 249 248 248 243 256 247 256 270 270 269 268 271 268 266 265 276 264 265 263 268 271 256 261 278
144 148 146 145 146 167 190 218 223 229 236 240 256 237 244 240 240 250 256 254 255 246 241 254 258 254 260 264 269 263 268 257 265 249 260 256 256 259 264 261 267 269 271
156 143 169 237 218 230 239 243 246 255 252 246 244 251 253 255 257 257 260 252 250 254 255 258 260 260 260 261 262 260 261 263 257 253 261 250 262 268 259 264 271 274 280
186 211 215 230 236 243 251 260 263 261 260 260 260 259 260 263 262 258 257 256 255 254 258 259 260 261 264 264 260 260 259 259 263 265 264 264 269 266 263 269 273 280 286
157 175 201 219 232 240 243 246 250 251 250 253 253 255 256 257 258 257 258 257 259 262 264 262 262 262 261 262 263 260 262 264 262 262 264 267 269 268 272 277 281 281 281
159 181 204 222 237 247 252 253 249 253 256 255 254 256 258 258 258 259 259 261 263 263 263 262 261 262 263 261 258 261 262 263 258 257 261 267 270 267 265 268 275 279 281
159 178 215 229 244 251 253 255 259 258 254 253 254 256 257 258 260 260 258 259 260 260 260 260 262 264 258 252 254 258 262 262 252 267 271 274 266 268 274 278 281 280 279
253 257 259 271 278 278 272 271 271 269 270 268 262 259 259 261 260 257 256 258 260 261 262 262 259 253 249 249 258 262 265 261 259 271 275 275 271 273 274 275 276 279 281
282 276 273 271 269 272 276 279 280 277 275 273 271 269 268 265 261 260 259 258 259 260 258 255 249 251 250 253 261 264 261 261 263 268 270 268 271 273 277 279 279 280 280
270 273 275 275 277 278 278 276 273 272 269 268 268 269 269 267 266 264 261 259 257 253 253 254 254 253 252 255 258 260 255 260 264 267 264 266 269 272 275 277 277 280 281
304 300 295 291 287 285 281 278 277 278 278 277 272 268 263 262 264 262 260 259 255 253 253 251 250 250 249 250 255 256 256 261 264 262 263 268 271 274 278 277 279 279 280
310 310 309 306 302 299 292 287 283 280 276 271 270 271 270 265 260 258 258 257 256 254 252 251 250 249 249 248 253 253 258 259 260 261 265 269 273 276 277 277 277 277 279
317 316 313 313 315 311 301 291 282 275 270 266 263 260 261 263 264 260 257 256 255 255 253 250 247 247 247 247 250 253 257 258 258 258 262 266 270 274 274 276 279 280 277
320 318 319 321 320 316 311 306 300 286 274 268 264 253 250 249 252 257 257 255 253 253 252 251 247 244 244 244 247 248 254 255 253 254 259 264 268 272 275 276 274 276 274
319 319 319 321 319 316 312 309 304 299 292 281 272 271 267 254 253 249 250 250 249 246 250 251 249 246 244 244 245 246 250 248 248 253 258 264 269 270 270 269 270 271 267
322 322 322 320 318 316 313 312 307 303 300 294 285 270 268 266 251 253 250 247 245 245 241 247 249 247 245 243 243 245 242 242 246 250 256 263 268 267 267 268 267 265 262
321 321 320 319 321 317 315 311 310 304 300 292 290 279 265 261 250 246 247 249 244 241 240 241 249 249 244 242 240 238 236 239 244 250 257 263 268 267 263 261 261 260 256
317 317 318 318 320 317 318 315 309 306 303 298 293 279 264 258 248 242 246 245 245 240 235 239 242 247 243 238 232 230 231 237 243 249 256 264 268 268 258 255 255 254 247
317 321 324 322 319 315 317 312 310 308 308 294 292 272 258 254 248 243 242 243 245 242 238 240 241 245 242 234 230 226 231 237 241 246 254 263 266 266 254 248 248 244 239
317 322 325 324 318 314 317 316 313 313 306 305 294 276 261 266 253 247 241 241 243 236 230 230 233 233 230 228 225 228 235 239 244 249 254 259 265 259 249 245 243 237 231
Height
3050 3054 3055 3055 3057 3060 3063 3065 3071 3077 3086 3093 3099 3105 3112 3116 3121 3125 3128 3132 3134 3137 3139 3142 3144 3145 3146 3148 3148 3149 3150 3151 3151 3152 3153 3153 3153 3153 3153 3152 3151 3151 3149
3043 3045 3048 3050 3053 3058 3063 3067 3070 3076 3084 3091 3097 3102 3107 3113 3117 3120 3123 3126 3130 3132 3134 3137 3139 3140 3142 3143 3143 3144 3145 3145 3146 3148 3148 3147 3148 3148 3148 3148 3147 3147 3146
3037 3039 3044 3047 3052 3055 3060 3065 3068 3073 3081 3087 3091 3095 3102 3106 3111 3115 3118 3122 3124 3127 3130 3132 3135 3136 3137 3138 3138 3138 3138 3139 3139 3142 3143 3142 3144 3143 3143 3144 3143 3142 3142
3037 3040 3043 3046 3052 3054 3055 3061 3067 3073 3076 3081 3085 3092 3096 3101 3106 3109 3112 3118 3120 3121 3124 3126 3127 3129 3130 3132 3133 3132 3130 3132 3133 3135 3135 3135 3136 3138 3138 3138 3139 3138 3137
3039 3043 3045 3046 3049 3049 3047 3058 3065 3070 3074 3078 3080 3085 3090 3098 3103 3105 3108 3110 3112 3114 3117 3121 3123 3123 3124 3125 3126 3126 3126 3125 3124 3126 3130 3129 3130 3131 3134 3132 3131 3132 3132
3037 3040 3044 3047 3047 3053 3053 3057 3063 3068 3074 3078 3081 3082 3086 3092 3099 3102 3102 3105 3106 3109 3111 3115 3116 3117 3117 3117 3118 3118 3120 3120 3118 3122 3125 3123 3124 3124 3125 3126 3126 3124 3121
3035 3041 3045 3048 3050 3055 3059 3063 3066 3071 3074 3074 3077 3082 3089 3086 3092 3096 3096 3098 3101 3100 3106 3108 3110 3108 3109 3110 3112 3112 3114 3118 3115 3113 3115 3115 3117 3117 3117 3117 3117 3116 3115
3037 3044 3048 3052 3054 3059 3061 3064 3066 3069 3071 3074 3076 3077 3083 3084 3085 3089 3089 3090 3090 3092 3098 3099 3094 3101 3102 3105 3106 3108 3108 3109 3108 3108 3108 3108 3108 3109 3110 3111 3111 3112 3109
3044 3046 3050 3055 3059 3062 3065 3067 3066 3068 3071 3073 3074 3077 3079 3080 3082 3083 3085 3085 3087 3090 3092 3093 3095 3097 3099 3100 3100 3102 3102 3102 3104 3104 3103 3101 3102 3103 3104 3104 3104 3104 3103
3046 3049 3054 3058 3060 3062 3062 3060 3061 3063 3064 3067 3070 3072 3073 3076 3078 3079 3081 3083 3084 3085 3086 3088 3090 3093 3093 3094 3094 3095 3095 3096 3097 3097 3095 3093 3096 3096 3097 3096 3096 3097 3096
3048 3051 3054 3055 3056 3058 3058 3058 3056 3058 3060 3062 3064 3065 3065 3068 3071 3074 3073 3077 3077 3079 3081 3082 3084 3085 3087 3086 3086 3088 3089 3089 3089 3087 3087 3087 3088 3089 3091 3091 3090 3089 3088
3044 3044 3046 3048 3051 3052 3052 3054 3054 3054 3056 3058 3058 3059 3059 3063 3065 3066 3066 3068 3070 3071 3073 3074 3075 3078 3079 3079 3080 3082 3082 3081 3082 3081 3081 3080 3080 3082 3083 3083 3083 3080 3081
3045 3045 3047 3049 3050 3051 3052 3052 3051 3051 3053 3053 3052 3052 3055 3057 3059 3058 3059 3061 3062 3063 3065 3067 3068 3069 3071 3072 3073 3075 3074 3074 3074 3074 3073 3073 3073 3075 3076 3076 3074 3073 3074
3047 3047 3052 3051 3049 3050 3052 3052 3051 3051 3051 3050 3049 3049 3050 3052 3052 3052 3052 3053 3053 3055 3056 3057 3059 3061 3063 3065 3065 3068 3068 3067 3067 3068 3066 3066 3068 3067 3069 3069 3068 3068 3067
3042 3047 3049 3049 3051 3049 3048 3048 3047 3048 3046 3046 3045 3045 3046 3045 3045 3046 3046 3045 3045 3047 3048 3049 3052 3053 3056 3058 3058 3061 3062 3060 3062 3061 3062 3062 3061 3062 3062 3062 3062 3060 3060
3049 3048 3046 3046 3044 3042 3040 3039 3038 3036 3037 3036 3037 3038 3038 3039 3038 3038 3038 3038 3037 3039 3041 3042 3044 3047 3048 3050 3053 3053 3057 3054 3056 3055 3054 3054 3053 3054 3054 3056 3056 3054 3054
3043 3042 3040 3040 3039 3037 3035 3031 3030 3028 3027 3025 3025 3025 3026 3027 3027 3028 3029 3030 3031 3031 3033 3034 3035 3038 3041 3045 3045 3046 3047 3047 3047 3047 3047 3047 3046 3047 3047 3049 3047 3047 3046
3035 3030 3025 3024 3023 3019 3018 3016 3017 3017 3017 3015 3015 3015 3014 3013 3014 3016 3018 3019 3021 3022 3022 3024 3026 3030 3033 3036 3036 3038 3039 3040 3040 3039 3040 3040 3039 3040 3040 3041 3041 3040 3038
3022 3019 3016 3013 3008 3005 3004 3002 3002 3001 3001 3001 3000 3001 3001 2999 3000 3003 3004 3005 3007 3010 3011 3014 3016 3019 3022 3027 3028 3028 3031 3031 3032 3032 3031 3031 3033 3033 3034 3034 3034 3033 3032
3016 3012 3009 3006 3002 2998 2993 2989 2986 2984 2984 2984 2983 2981 2981 2985 2986 2989 2990 2992 2994 2996 2998 3001 3004 3007 3009 3014 3016 3018 3022 3022 3024 3024 3024 3024 3025 3027 3025 3026 3025 3025 3026
3013 3009 3004 3000 2995 2988 2983 2979 2976 2973 2969 2966 2966 2968 2971 2972 2970 2971 2974 2977 2980 2982 2986 2989 2991 2995 2997 3003 3006 3009 3012 3015 3015 3016 3014 3019 3018 3018 3018 3019 3018 3018 3018
3004 3000 2995 2991 2987 2981 2974 2968 2963 2958 2954 2952 2951 2952 2952 2953 2957 2961 2961 2963 2965 2968 2971 2976 2980 2983 2986 2991 2995 3001 3003 3004 3006 3008 3009 3010 3011 3011 3011 3012 3011 3012 3012
2997 2992 2987 2982 2978 2972 2966 2958 2953 2947 2944 2939 2935 2935 2935 2937 2940 2944 2949 2949 2952 2955 2960 2964 2968 2971 2975 2979 2985 2991 2992 2996 2998 3000 3002 3003 3004 3002 3003 3005 3005 3005 3006
2992 2987 2982 2976 2970 2964 2957 2950 2943 2937 2931 2924 2920 2919 2919 2924 2925 2928 2934 2936 2940 2943 2947 2952 2956 2962 2966 2970 2976 2980 2983 2986 2989 2992 2993 2995 2995 2995 2996 2997 2998 2999 3000
2985 2980 2974 2968 2963 2956 2950 2942 2935 2928 2920 2915 2910 2908 2909 2911 2913 2915 2921 2924 2928 2932 2937 2943 2948 2952 2957 2961 2966 2968 2974 2977 2980 2982 2984 2987 2987 2986 2988 2990 2991 2992 2995
2977 2972 2967 2961 2955 2948 2941 2933 2927 2919 2913 2908 2904 2901 2901 2901 2903 2906 2908 2913 2917 2920 2925 2932 2937 2942 2947 2950 2953 2959 2964 2966 2970 2972 2975 2977 2978 2978 2981 2983 2984 2987 2989